DELTA 1 DEB, 7027

Orbit data source: Space-Track

DELTA 1 DEB, 7027 is space debris in SSO originally from a launch on Tue, 06 Nov 1973 UTC launched from the Air Force Western Test Range (AFWTR). Debris objects in space refer to the collection of defunct objects orbiting the Earth. Examples of debris include non-operational satellites, rocket bodies, and fragments generated from explosions, collisions, or faulty payload assembly.

Loading next visibility...
Identifier
7027, 1973-086T
Orbit
SSO
Country
Flag of USUS
Related business
Manufacturer
Unknown
Mission
Spacecraft
Bus & Motor
Unknown
Mass
Unknown
Launch date (UTC)
1973-11-06 (53 years ago)
Launch vehicle
Unknown
Launch site
Air Force Western Test Range (AFWTR)
Object type
Payload
Rocket body
Debris
Shape & HBR
Unknown shape, 0.2 m
Radar Cross Section
Medium (>0.1 m² and <1 m²)

Expand to show TLE details & history
Last TLE update: 3 hours ago

TLE from 3 hours ago
0 DELTA 1 DEB
1 07027U 73086T   26263.99210126 -.00000147  00000-0 -82022-3 0  9990
2 07027 101.8966 152.7491 0053395 228.6220 143.3109 12.35228513375878
Epoch: 2026-09-20T23:48Z
TLE epoch observation values (Epoch: 2026-09-20T23:48:37.548Z)
Latitude
11.99156°
Longitude
153.16209°
Altitude
1,562.626 km
Speed
7.072 km/s
True Right ascension
10h 00m 47s
True Declination
11° 55' 44"
Sunlit
Object was in daylight at epoch
Visualization orbit readout
Latitude
Unknown
Longitude
Unknown
Altitude
Unknown
Speed
Unknown
Apparent Right ascension
Unknown
Apparent Declination
Unknown
Sunlit
N/A
Visualization observer readout
Local Sidereal Time
19:46:47
Azimuth
Unknown
Elevation
Unknown
Doppler factor
Unknown
Orbital elements
Apogee altitude
1,566.666 km
Perigee altitude
1,482.274 km
Semi-major axis
7,902.607 km
Eccentricity
0.00534
Inclination
101.8966°
RAAN
152.7491°
Arg. of periapsis
228.622°
True anomaly
143.67452°
Mean anomaly
143.3109°
Eccentric anomaly
143.49291°
Mean motion
3.0895 °/min
Orbital period
116.52 mins
BSTAR
-0.00082022
Loading maneuver chart data...
Computing Atmospheric mass density...
Loading historical data...
Loading historical data...
Loading historical data...
Loading historical data...
Loading historical data...
Loading historical data...
Loading historical data...

Documentation

Showing up to 5 results
|